DELTA 1 DEB

Satellite information

Favourite Embed

Satellite Type and Status

DEBRISIN ORBIT

Key statistics

Satellite DELTA 1 DEB at a glance.

Uptime

17229

Days in orbit

Revolutions

≈ 14.3

Per day

Orbit

SSO

Sun Synchronous Orbit

Inclination

99.1

Latest

Satellite identification and parameters

Extended collection of information and parameters for DELTA 1 DEB.

Object identification

Identified? True

Debris? True

Object name: DELTA 1 DEB

International designator: 1978-026GK

Object number (NORAD): 14910

Object ID (CCSDS): 14910

Country: UNITED STATES OF AMERICA (US)

Current information (Y/N): Y

RCS size: SMALL

Orbital parameters

Period: 101.015 minutes

Inclination: 99.0699 deg

SMA: 7184.862 km

Apoapsis: 816.984 km

Periapsis: 796.47 km

RAAN: 85.3591 deg

Eccentricy: 0.0014276

Argument of periapsis: 240.3013 deg

Mean anomaly: 174.8207 deg

Mean motion: 14.25525978 rev/day

Mean motion (dot): 0.00002009 rev/day2

B* drag term: 0.0008686 1/REarth

Two-line elements (TLE)

Creation date: May 6, 2025, 3:54 a.m.

Reference frame: TEME

Reference center: EARTH

Epoch: May 5, 2025, 2:33 p.m. UTC

TLE line 0: 0 DELTA 1 DEB

TLE line 1: 1 14910U 78026GK 25125.60670287 .00002009 00000-0 86860-3 0 9991

TLE line 2: 2 14910 99.0699 85.3591 0014276 240.3013 174.8207 14.25525978133524

Live tracking on map

Real-time ground track for satellite DELTA 1 DEB.

In-orbit conjunctions

A list of the most updated potential collisions computed for object DELTA 1 DEB.

Target Orbit TCA Probability of collision Miss distance Type
CZ-2D R/B LEO 2024-12-08 13:54:20 0.0002472002 329.0 (m) ROCKET BODY
CZ-6A DEB LEO 2024-11-18 07:12:55 0.0001464664 279.0 (m) DEBRIS

Associated space launch

Earth observation satellite

DELTA 1 DEB was lifted into orbit during the mission ‘Delta 2910 | Landsat 3’, on board a Delta 2910 space rocket.

The launch took place on March 5, 1978, 5:54 p.m. from Space Launch Complex 2W.

For more information about the launch, click the button.

Launch to space Delta 2910 | Landsat 3
Delta 2910 | Landsat 3

Agency: N/A

Status: Launch Successful

Launch date: March 5, 1978, 5:54 p.m. UTC

Rocket: Delta 2910

Launch pad: Space Launch Complex 2W

Location: Vandenberg SFB, CA, USA

...

Latest news about this satellite

There are no fresh news available about this satellite. Check back as we update our databases every day.


Newsletter sign-up

Weekly statistics, charts and insights to help you stay on top of the space industry.